Regional Weather Roundup
Issued by NWS

Home | Current Version | Previous Version | Graphics & Text | Print | Product List | Glossary On
Versions: 1 2 3 4 5 6 7 8 9 10 11 12 13 14 15 16 17 18 19 20 21 22 23 24 25 26 27 28 29 30 31 32 33 34 35 36 37 38 39 40 41 42 43 44 45 46 47 48 49 50
000
ASUS43 KLMK 062010
RWRKY
KENTUCKY REGIONAL WEATHER ROUNDUP
NATIONAL WEATHER SERVICE LOUISVILLE KY
300 PM EST FRI MAR 06 2015

NOTE "FAIR" INDICATES FEW OR NO CLOUDS BELOW 12,000 FEET
WITH NO SIGNIFICANT WEATHER AND/OR OBSTRUCTIONS TO VISIBILITY.

KYZ001>023-026-027-061>063-070>075-062100-
WESTERN AND SOUTH CENTRAL KENTUCKY

CITY           SKY/WX    TMP DP  RH WIND       PRES   REMARKS
PADUCAH        SUNNY     28   9  44 S9        30.49F WCI  19
HENDERSON      SUNNY     27   9  46 S8        30.48F WCI  18
OWENSBORO      SUNNY     26  13  58 S12       30.49F WCI  16
HOPKINSVILLE   SUNNY     27  15  60 NE3       30.49F
BOWLING GREEN  SUNNY     27  12  53 VRB3      30.51F
GLASGOW        SUNNY     30  11  45 CALM      30.49F
$$

KYZ024-025-028>034-038-045-046-053-062100-
NORTH CENTRAL KENTUCKY

CITY           SKY/WX    TMP DP  RH WIND       PRES   REMARKS
LOUISVILLE/SDF MOSUNNY   31  12  45 SW9       30.47F WCI  23
LOUISVILLE/LOU SUNNY     29  14  53 S7        30.47F WCI  22
FORT KNOX      SUNNY     28  14  54 S8        30.44F WCI  20
$$

KYZ035>037-039>044-047>052-055>060-089>105-062100-
NORTHEAST KENTUCKY

CITY           SKY/WX    TMP DP  RH WIND       PRES   REMARKS
LEXINGTON      SUNNY     22  10  60 SW7       30.47F WCI  13
COVINGTON      SUNNY     25  10  53 S13       30.44F WCI  14
FRANKFORT      SUNNY     25  13  60 S3        30.46F
$$

KYZ054-064>069-076>088-106>120-062100-
SOUTHEAST KENTUCKY

CITY           SKY/WX    TMP DP  RH WIND       PRES   REMARKS
JACKSON        SUNNY     30   7  37 CALM      30.43F
LONDON         SUNNY     29  10  45 CALM      30.44F
SOMERSET       SUNNY     28  12  50 S3        30.48F
MIDDLESBORO    SUNNY     35  20  53 NE5       30.43F WCI  31
MONTICELLO     CLEAR     32  11  41 CALM      30.49F
$$



USA.gov is the U.S. government's official web portal to all federal, state and local government web resources and services.